Time,TemperatureF,DewpointF,PressureIn,WindDirection,WindDirectionDegrees,WindSpeedMPH,WindSpeedGustMPH,Humidity,HourlyPrecipIn,Conditions,Clouds,dailyrainin,SoftwareType,DateUTC
2013-07-11 00:09:00,66.2,61.9,30.03,NNW,341,0.0,0.0,86,0.00,,BKN060,0.00,VWS V14.00,2013-07-11 05:09:00,
2013-07-11 00:19:00,66.4,62.1,30.03,NNW,341,0.0,0.0,86,0.00,,BKN060,0.00,VWS V14.00,2013-07-11 05:19:00,
2013-07-11 00:29:00,66.2,61.6,30.06,SSE,166,5.4,11.6,85,0.00,,OVC060,0.00,VWS V14.00,2013-07-11 05:29:00,
2013-07-11 00:39:00,66.2,61.2,30.06,SSE,152,0.0,5.4,84,0.00,,OVC060,0.00,VWS V14.00,2013-07-11 05:39:00,
2013-07-11 00:49:00,66.2,61.2,30.06,SSE,152,0.0,0.0,84,0.00,,OVC060,0.00,VWS V14.00,2013-07-11 05:49:00,
2013-07-11 00:59:00,66.2,61.2,30.06,SSE,152,0.0,0.0,84,0.00,,OVC060,0.00,VWS V14.00,2013-07-11 05:59:00,
2013-07-11 01:09:00,66.0,61.4,30.06,SSE,152,0.0,0.0,85,0.00,,OVC060,0.00,VWS V14.00,2013-07-11 06:09:00,
2013-07-11 01:19:00,66.0,61.7,30.06,SSE,152,0.0,0.0,86,0.00,,OVC060,0.00,VWS V14.00,2013-07-11 06:19:00,
2013-07-11 01:29:00,65.8,61.2,30.06,SSE,152,0.0,0.0,85,0.00,,OVC060,0.00,VWS V14.00,2013-07-11 06:29:00,
2013-07-11 01:39:00,65.8,61.2,30.06,SSE,152,0.0,0.0,85,0.00,,OVC060,0.00,VWS V14.00,2013-07-11 06:39:00,
2013-07-11 01:49:00,66.0,61.7,30.06,SSE,152,0.0,0.0,86,0.00,,OVC060,0.00,VWS V14.00,2013-07-11 06:49:00,
2013-07-11 01:59:00,66.2,61.6,30.06,SSE,152,0.0,0.0,85,0.00,,OVC060,0.00,VWS V14.00,2013-07-11 06:59:00,
2013-07-11 02:10:00,66.2,61.6,30.06,SSE,152,0.0,0.0,85,0.00,,OVC060,0.00,VWS V14.00,2013-07-11 07:10:00,
2013-07-11 02:20:00,66.2,61.6,30.06,SSE,152,0.0,0.0,85,0.00,,OVC060,0.00,VWS V14.00,2013-07-11 07:20:00,
2013-07-11 02:30:00,66.4,61.7,30.06,SSE,152,0.0,0.0,85,0.00,,OVC060,0.00,VWS V14.00,2013-07-11 07:30:00,
2013-07-11 02:40:00,66.2,61.2,30.06,SSE,152,0.0,0.0,84,0.00,,OVC060,0.00,VWS V14.00,2013-07-11 07:40:00,
2013-07-11 02:50:00,65.8,61.5,30.06,SSE,152,0.0,0.0,86,0.00,,OVC060,0.00,VWS V14.00,2013-07-11 07:50:00,
2013-07-11 02:59:00,65.8,61.9,30.06,SSE,152,0.0,0.0,87,0.00,,OVC060,0.00,VWS V14.00,2013-07-11 07:59:00,
2013-07-11 03:09:00,65.7,61.7,30.06,SSE,152,0.0,0.0,87,0.00,,OVC060,0.00,VWS V14.00,2013-07-11 08:09:00,
2013-07-11 03:19:00,65.3,61.3,30.06,SSE,152,0.0,0.0,87,0.00,,OVC060,0.00,VWS V14.00,2013-07-11 08:19:00,
2013-07-11 03:40:00,64.8,61.8,30.06,SSE,152,0.0,0.0,90,0.00,,OVC060,0.00,VWS V14.00,2013-07-11 08:40:00,
2013-07-11 03:50:00,64.2,61.5,30.06,SSE,152,0.0,0.0,91,0.00,,BKN060,0.00,VWS V14.00,2013-07-11 08:50:00,
2013-07-11 03:59:00,63.9,61.5,30.06,SSE,152,0.0,0.0,92,0.00,,BKN060,0.00,VWS V14.00,2013-07-11 08:59:00,
2013-07-11 04:09:00,63.9,61.8,30.06,SSE,152,0.0,0.0,93,0.00,,BKN060,0.00,VWS V14.00,2013-07-11 09:09:00,
2013-07-11 04:19:00,63.9,61.8,30.06,SSE,152,0.0,0.0,93,0.00,,BKN060,0.00,VWS V14.00,2013-07-11 09:19:00,
2013-07-11 04:29:00,64.0,62.0,30.06,SSE,152,0.0,0.0,93,0.00,,SCT060,0.00,VWS V14.00,2013-07-11 09:29:00,
2013-07-11 04:39:00,64.4,62.0,30.06,SSE,152,0.0,0.0,92,0.00,,SCT060,0.00,VWS V14.00,2013-07-11 09:39:00,
2013-07-11 04:49:00,64.6,61.9,30.09,SSE,152,0.0,0.0,91,0.00,,SCT060,0.00,VWS V14.00,2013-07-11 09:49:00,
2013-07-11 04:59:00,64.6,61.6,30.09,SSE,152,0.0,0.0,90,0.00,,SCT060,0.00,VWS V14.00,2013-07-11 09:59:00,
2013-07-11 05:09:00,64.9,61.3,30.09,SSE,152,0.0,0.0,88,0.00,,CLR,0.00,VWS V14.00,2013-07-11 10:09:00,
2013-07-11 05:19:00,64.8,60.8,30.09,SSE,152,0.0,0.0,87,0.00,,CLR,0.00,VWS V14.00,2013-07-11 10:19:00,
2013-07-11 05:29:00,64.6,60.6,30.09,SSE,152,0.0,0.0,87,0.00,,CLR,0.00,VWS V14.00,2013-07-11 10:29:00,
2013-07-11 05:39:00,64.0,60.1,30.09,SSE,152,0.0,0.0,87,0.00,,CLR,0.00,VWS V14.00,2013-07-11 10:39:00,
2013-07-11 05:49:00,63.5,59.6,30.09,SSE,152,0.0,0.0,87,0.00,,CLR,0.00,VWS V14.00,2013-07-11 10:49:00,
2013-07-11 05:59:00,63.1,59.5,30.09,SSE,152,0.0,0.0,88,0.00,,CLR,0.00,VWS V14.00,2013-07-11 10:59:00,
2013-07-11 06:09:00,63.1,59.5,30.09,SSE,152,0.0,0.0,88,0.00,,CLR,0.00,VWS V14.00,2013-07-11 11:09:00,
2013-07-11 06:19:00,63.1,59.5,30.09,West,267,0.0,0.0,88,0.00,,CLR,0.00,VWS V14.00,2013-07-11 11:19:00,
2013-07-11 06:29:00,63.1,59.5,30.09,WNW,302,0.0,0.0,88,0.00,,CLR,0.00,VWS V14.00,2013-07-11 11:29:00,
2013-07-11 06:39:00,63.5,59.9,30.09,ENE,77,0.0,4.5,88,0.00,,CLR,0.00,VWS V14.00,2013-07-11 11:39:00,
2013-07-11 06:49:00,63.9,60.2,30.09,NNW,333,0.0,0.0,88,0.00,,CLR,0.00,VWS V14.00,2013-07-11 11:49:00,
2013-07-11 06:59:00,64.6,60.6,30.09,NNW,333,0.0,0.0,87,0.00,,CLR,0.00,VWS V14.00,2013-07-11 11:59:00,
2013-07-11 07:09:00,65.1,60.8,30.09,NNW,327,0.0,0.0,86,0.00,,CLR,0.00,VWS V14.00,2013-07-11 12:09:00,
2013-07-11 07:19:00,65.8,60.9,30.12,North,353,0.0,0.0,84,0.00,,CLR,0.00,VWS V14.00,2013-07-11 12:19:00,
2013-07-11 07:28:00,66.6,60.9,30.12,NNW,340,0.0,4.5,82,0.00,,CLR,0.00,VWS V14.00,2013-07-11 12:28:00,
2013-07-11 07:40:00,67.3,60.5,30.12,NNW,333,0.0,8.1,79,0.00,,CLR,0.00,VWS V14.00,2013-07-11 12:40:00,
2013-07-11 07:50:00,67.6,60.9,30.12,NNW,338,0.0,9.8,79,0.00,,CLR,0.00,VWS V14.00,2013-07-11 12:50:00,
2013-07-11 08:09:00,68.5,60.7,30.12,NNW,341,8.1,8.1,76,0.00,,CLR,0.00,VWS V14.00,2013-07-11 13:09:00,
2013-07-11 08:19:00,68.9,61.0,30.12,NNW,343,0.0,8.1,76,0.00,,CLR,0.00,VWS V14.00,2013-07-11 13:19:00,
2013-07-11 08:29:00,69.4,61.2,30.12,NNE,28,5.4,8.1,75,0.00,,CLR,0.00,VWS V14.00,2013-07-11 13:29:00,
2013-07-11 08:39:00,70.0,60.9,30.12,NNW,342,5.4,10.7,73,0.00,,CLR,0.00,VWS V14.00,2013-07-11 13:39:00,
2013-07-11 08:49:00,70.2,60.3,30.12,North,7,0.0,7.2,71,0.00,,CLR,0.00,VWS V14.00,2013-07-11 13:49:00,
2013-07-11 08:59:00,70.7,60.8,30.12,North,5,4.5,6.3,71,0.00,,CLR,0.00,VWS V14.00,2013-07-11 13:59:00,
2013-07-11 09:09:00,71.2,61.0,30.12,North,353,0.0,6.3,70,0.00,,CLR,0.00,VWS V14.00,2013-07-11 14:09:00,
2013-07-11 09:19:00,71.6,60.1,30.12,NNE,13,6.3,8.1,67,0.00,,CLR,0.00,VWS V14.00,2013-07-11 14:19:00,
2013-07-11 09:29:00,72.3,60.8,30.12,SE,142,0.0,6.3,67,0.00,,CLR,0.00,VWS V14.00,2013-07-11 14:29:00,
2013-07-11 09:39:00,72.9,60.0,30.12,NNW,339,4.5,8.1,64,0.00,,CLR,0.00,VWS V14.00,2013-07-11 14:39:00,
2013-07-11 09:49:00,73.2,59.0,30.12,North,360,7.2,10.7,61,0.00,,CLR,0.00,VWS V14.00,2013-07-11 14:49:00,
2013-07-11 09:59:00,73.6,58.4,30.12,NNW,335,7.2,8.1,59,0.00,,CLR,0.00,VWS V14.00,2013-07-11 14:59:00,
2013-07-11 10:09:00,73.8,57.1,30.12,ENE,68,4.5,10.7,56,0.00,,CLR,0.00,VWS V14.00,2013-07-11 15:09:00,
2013-07-11 10:19:00,73.9,55.8,30.12,NNW,343,0.0,10.7,53,0.00,,CLR,0.00,VWS V14.00,2013-07-11 15:19:00,
2013-07-11 10:29:00,74.1,55.9,30.12,ENE,75,4.5,8.9,53,0.00,,CLR,0.00,VWS V14.00,2013-07-11 15:29:00,
2013-07-11 10:49:00,74.5,55.2,30.12,NW,322,5.4,9.8,51,0.00,,CLR,0.00,VWS V14.00,2013-07-11 15:49:00,
2013-07-11 10:59:00,74.5,54.6,30.12,NNW,333,8.1,12.5,50,0.00,,CLR,0.00,VWS V14.00,2013-07-11 15:59:00,
2013-07-11 11:09:00,74.5,54.6,30.12,North,5,5.4,16.6,50,0.00,,CLR,0.00,VWS V14.00,2013-07-11 16:09:00,
2013-07-11 11:19:00,75.0,55.1,30.12,NNE,19,5.4,12.5,50,0.00,,CLR,0.00,VWS V14.00,2013-07-11 16:19:00,
2013-07-11 11:30:00,75.2,54.2,30.12,NNW,347,6.3,11.6,48,0.00,,CLR,0.00,VWS V14.00,2013-07-11 16:30:00,
2013-07-11 11:40:00,75.6,55.1,30.12,NNE,24,0.0,9.8,49,0.00,,CLR,0.00,VWS V14.00,2013-07-11 16:40:00,
2013-07-11 11:50:00,75.7,54.7,30.12,North,1,8.1,16.1,48,0.00,,CLR,0.00,VWS V14.00,2013-07-11 16:50:00,
2013-07-11 12:10:00,76.3,54.6,30.12,NNE,21,4.5,12.5,47,0.00,,CLR,0.00,VWS V14.00,2013-07-11 17:10:00,
2013-07-11 12:19:00,76.6,55.5,30.12,NNW,341,4.5,20.1,48,0.00,,CLR,0.00,VWS V14.00,2013-07-11 17:19:00,
2013-07-11 12:29:00,76.6,54.3,30.12,NNE,12,4.5,12.5,46,0.00,,CLR,0.00,VWS V14.00,2013-07-11 17:29:00,
2013-07-11 12:39:00,76.1,54.4,30.12,NNW,336,5.4,12.5,47,0.00,,CLR,0.00,VWS V14.00,2013-07-11 17:39:00,
2013-07-11 12:49:00,76.5,54.8,30.12,North,9,5.4,10.7,47,0.00,,CLR,0.00,VWS V14.00,2013-07-11 17:49:00,
2013-07-11 12:59:00,77.0,53.4,30.12,NE,50,10.7,12.5,44,0.00,,CLR,0.00,VWS V14.00,2013-07-11 17:59:00,
2013-07-11 13:19:00,78.1,54.4,30.12,East,88,7.2,12.5,44,0.00,,CLR,0.00,VWS V14.00,2013-07-11 18:19:00,
2013-07-11 13:29:00,78.1,54.4,30.12,NNW,347,5.4,10.7,44,0.00,,CLR,0.00,VWS V14.00,2013-07-11 18:29:00,
2013-07-11 13:39:00,78.1,54.4,30.12,North,10,6.3,10.7,44,0.00,,CLR,0.00,VWS V14.00,2013-07-11 18:39:00,
2013-07-11 13:49:00,78.3,53.3,30.12,NW,324,5.4,10.7,42,0.00,,CLR,0.00,VWS V14.00,2013-07-11 18:49:00,
2013-07-11 13:59:00,78.6,53.0,30.12,SE,134,5.4,10.7,41,0.00,,CLR,0.00,VWS V14.00,2013-07-11 18:59:00,
2013-07-11 14:09:00,78.6,53.0,30.12,NNW,346,6.3,12.5,41,0.00,,CLR,0.00,VWS V14.00,2013-07-11 19:09:00,
2013-07-11 14:19:00,78.6,53.6,30.12,NNW,332,8.1,14.3,42,0.00,,CLR,0.00,VWS V14.00,2013-07-11 19:19:00,
2013-07-11 14:29:00,79.2,52.8,30.12,ENE,75,8.1,12.5,40,0.00,,CLR,0.00,VWS V14.00,2013-07-11 19:29:00,
2013-07-11 14:39:00,79.0,52.6,30.12,NNW,341,12.5,12.5,40,0.00,,CLR,0.00,VWS V14.00,2013-07-11 19:39:00,
2013-07-11 14:49:00,78.8,52.5,30.12,ENE,62,0.0,13.4,40,0.00,,CLR,0.00,VWS V14.00,2013-07-11 19:49:00,
2013-07-11 14:59:00,78.8,51.8,30.12,NNW,329,4.5,10.7,39,0.00,,CLR,0.00,VWS V14.00,2013-07-11 19:59:00,
2013-07-11 15:09:00,79.3,51.5,30.12,ESE,110,5.4,13.4,38,0.00,,SCT060,0.00,VWS V14.00,2013-07-11 20:09:00,
2013-07-11 15:19:00,79.3,51.5,30.12,NNW,334,5.4,11.6,38,0.00,,SCT060,0.00,VWS V14.00,2013-07-11 20:19:00,
2013-07-11 15:30:00,79.2,51.4,30.12,East,91,7.2,10.7,38,0.00,,SCT060,0.00,VWS V14.00,2013-07-11 20:30:00,
2013-07-11 15:40:00,79.5,53.8,30.12,ESE,113,7.2,10.7,41,0.00,,SCT060,0.00,VWS V14.00,2013-07-11 20:40:00,
2013-07-11 15:50:00,79.5,53.1,30.12,North,9,8.1,10.7,40,0.00,,SCT060,0.00,VWS V14.00,2013-07-11 20:50:00,
2013-07-11 16:00:00,79.5,53.1,30.12,North,2,5.4,11.6,40,0.00,,CLR,0.00,VWS V14.00,2013-07-11 21:00:00,
2013-07-11 16:10:00,79.3,52.3,30.12,SSE,148,0.0,10.7,39,0.00,,CLR,0.00,VWS V14.00,2013-07-11 21:10:00,
2013-07-11 16:19:00,79.5,51.7,30.12,NNW,347,7.2,12.5,38,0.00,,CLR,0.00,VWS V14.00,2013-07-11 21:19:00,
2013-07-11 16:29:00,79.5,51.7,30.12,East,94,4.5,12.5,38,0.00,,CLR,0.00,VWS V14.00,2013-07-11 21:29:00,
2013-07-11 16:39:00,79.7,50.4,30.12,NE,43,4.5,12.5,36,0.00,,SCT060,0.00,VWS V14.00,2013-07-11 21:39:00,
2013-07-11 16:49:00,79.5,51.0,30.12,East,99,0.0,9.8,37,0.00,,SCT060,0.00,VWS V14.00,2013-07-11 21:49:00,
2013-07-11 16:59:00,79.3,50.8,30.12,East,99,7.2,9.8,37,0.00,,CLR,0.00,VWS V14.00,2013-07-11 21:59:00,
2013-07-11 17:09:00,79.7,51.9,30.12,ENE,63,5.4,10.7,38,0.00,,CLR,0.00,VWS V14.00,2013-07-11 22:09:00,
2013-07-11 17:19:00,79.9,51.3,30.12,East,97,0.0,12.5,37,0.00,,CLR,0.00,VWS V14.00,2013-07-11 22:19:00,
2013-07-11 17:29:00,79.9,50.6,30.12,ENE,72,0.0,12.5,36,0.00,,SCT065,0.00,VWS V14.00,2013-07-11 22:29:00,
2013-07-11 17:39:00,79.5,50.2,30.12,NE,51,0.0,9.8,36,0.00,,SCT065,0.00,VWS V14.00,2013-07-11 22:39:00,
2013-07-11 17:50:00,79.3,50.1,30.12,NNW,334,0.0,0.0,36,0.00,,SCT065,0.00,VWS V14.00,2013-07-11 22:50:00,
2013-07-11 18:00:00,79.2,49.9,30.09,East,92,5.4,9.8,36,0.00,,SCT065,0.00,VWS V14.00,2013-07-11 23:00:00,
2013-07-11 18:10:00,79.2,51.4,30.09,SE,126,0.0,12.5,38,0.00,,SCT065,0.00,VWS V14.00,2013-07-11 23:10:00,
2013-07-11 18:20:00,79.0,51.2,30.09,East,80,4.5,9.8,38,0.00,,SCT065,0.00,VWS V14.00,2013-07-11 23:20:00,
2013-07-11 18:29:00,78.8,50.4,30.09,ESE,113,0.0,8.1,37,0.00,,SCT065,0.00,VWS V14.00,2013-07-11 23:29:00,
2013-07-11 18:39:00,78.4,51.5,30.09,ENE,78,4.5,8.1,39,0.00,,CLR,0.00,VWS V14.00,2013-07-11 23:39:00,
2013-07-11 18:49:00,78.4,52.1,30.09,SSE,160,0.0,9.8,40,0.00,,CLR,0.00,VWS V14.00,2013-07-11 23:49:00,
2013-07-11 18:59:00,78.1,52.5,30.09,SE,140,0.0,7.2,41,0.00,,CLR,0.00,VWS V14.00,2013-07-11 23:59:00,
2013-07-11 19:09:00,77.9,53.0,30.09,SE,144,5.4,6.3,42,0.00,,CLR,0.00,VWS V14.00,2013-07-12 00:09:00,
2013-07-11 19:19:00,77.4,54.4,30.09,South,186,0.0,6.3,45,0.00,,CLR,0.00,VWS V14.00,2013-07-12 00:19:00,
2013-07-11 19:59:00,75.6,55.6,30.09,ESE,116,0.0,0.0,50,0.00,,CLR,0.00,VWS V14.00,2013-07-12 00:59:00,
2013-07-11 20:09:00,75.0,56.8,30.09,ESE,117,0.0,0.0,53,0.00,,CLR,0.00,VWS V14.00,2013-07-12 01:09:00,
2013-07-11 20:19:00,73.9,56.3,30.09,ESE,117,0.0,0.0,54,0.00,,CLR,0.00,VWS V14.00,2013-07-12 01:19:00,
2013-07-11 20:29:00,73.0,56.9,30.09,ESE,117,0.0,0.0,57,0.00,,CLR,0.00,VWS V14.00,2013-07-12 01:29:00,
2013-07-11 20:39:00,72.0,55.9,30.09,ESE,116,0.0,0.0,57,0.00,,CLR,0.00,VWS V14.00,2013-07-12 01:39:00,
2013-07-11 20:50:00,71.2,58.0,30.09,ESE,116,0.0,0.0,63,0.00,,CLR,0.00,VWS V14.00,2013-07-12 01:50:00,
2013-07-11 21:00:00,70.7,57.1,30.09,ESE,116,0.0,0.0,62,0.00,,CLR,0.00,VWS V14.00,2013-07-12 02:00:00,
2013-07-11 21:09:00,70.2,57.0,30.09,ESE,116,0.0,0.0,63,0.00,,CLR,0.00,VWS V14.00,2013-07-12 02:09:00,
2013-07-11 21:19:00,69.6,56.9,30.09,ESE,116,0.0,0.0,64,0.00,,CLR,0.00,VWS V14.00,2013-07-12 02:19:00,
2013-07-11 21:29:00,69.3,58.3,30.09,ESE,116,0.0,0.0,68,0.00,,CLR,0.00,VWS V14.00,2013-07-12 02:29:00,
2013-07-11 21:39:00,68.5,56.7,30.09,ESE,116,0.0,0.0,66,0.00,,CLR,0.00,VWS V14.00,2013-07-12 02:39:00,
2013-07-11 21:49:00,68.4,57.0,30.09,ESE,116,0.0,0.0,67,0.00,,CLR,0.00,VWS V14.00,2013-07-12 02:49:00,
2013-07-11 21:59:00,67.8,56.5,30.09,ESE,116,0.0,0.0,67,0.00,,CLR,0.00,VWS V14.00,2013-07-12 02:59:00,
2013-07-11 22:09:00,67.8,56.9,30.09,ESE,116,0.0,0.0,68,0.00,,CLR,0.00,VWS V14.00,2013-07-12 03:09:00,
2013-07-11 22:19:00,67.6,56.7,30.12,ESE,116,0.0,0.0,68,0.00,,CLR,0.00,VWS V14.00,2013-07-12 03:19:00,
2013-07-11 22:29:00,67.5,57.3,30.12,ESE,116,0.0,0.0,70,0.00,,CLR,0.00,VWS V14.00,2013-07-12 03:29:00,
2013-07-11 22:39:00,67.3,57.6,30.12,ESE,116,0.0,0.0,71,0.00,,CLR,0.00,VWS V14.00,2013-07-12 03:39:00,
2013-07-11 22:49:00,67.1,57.0,30.12,SE,126,0.0,0.0,70,0.00,,CLR,0.00,VWS V14.00,2013-07-12 03:49:00,
2013-07-11 22:59:00,66.6,57.3,30.12,SE,126,0.0,0.0,72,0.00,,CLR,0.00,VWS V14.00,2013-07-12 03:59:00,
2013-07-11 23:09:00,66.0,57.1,30.12,SE,127,0.0,0.0,73,0.00,,CLR,0.00,VWS V14.00,2013-07-12 04:09:00,
2013-07-11 23:19:00,65.5,57.4,30.12,SE,126,0.0,0.0,75,0.00,,CLR,0.00,VWS V14.00,2013-07-12 04:19:00,
2013-07-11 23:29:00,64.8,57.0,30.12,SE,126,0.0,0.0,76,0.00,,CLR,0.00,VWS V14.00,2013-07-12 04:29:00,
2013-07-11 23:39:00,64.2,56.9,30.12,SE,126,0.0,0.0,77,0.00,,CLR,0.00,VWS V14.00,2013-07-12 04:39:00,
2013-07-11 23:50:00,64.4,57.0,30.12,SE,126,0.0,0.0,77,0.00,,CLR,0.00,VWS V14.00,2013-07-12 04:50:00,